Погода в Алаторке

Россия / Республика Башкортостан     54°46′35″N   56°22′00″E
темп.,
°C
ветер,
м/с
пор.,
м/с
влажн.,
%
обл.,
%
осадки,
мм/ч
давл.,
гПа
погр.,
м
26 февраля, пт
пт2623:00−26ююв36940 0.0 102992
02:00−26ююв48910 0.0 1028182
05:00−26ююв48900 0.0 1028157
08:00−23ююв399697 0.2 1027319
11:00−20ююв369493 0.2 1026287
14:00−16ю368867 0.0 1024439
17:00−15ю259046 0.0 1023320
20:00−18ююв229576 0.0 102120
27 февраля, сб
сб2723:00−18ю379684 0.0 1020136
02:00−18юв31191100 0.0 1016287
05:00−16юв51383100 0.0 1013505
08:00−14юв61394100 1.1 1009684
11:00−12ююв51093100 2.5 1006736
14:00−9ююв6991100 0.3 1004765
17:00−9юв4894100 1.1 1003611
20:00−11вюв4894100 0.3 1003232
28 февраля, вс
вс2823:00−10вюв4795100 0.9 1002229
02:00−9вюв3696100 0.9 1001189
05:00−8вюв3596100 1.8 1001158
08:00−7вюв3496100 0.8 1001108
11:00−4юв239695 1.1 1001186
14:00−2св119899 0.4 1001192
17:00−2ссз469799 0.9 1002316
20:00−7сз489692 0.4 1004217
1 марта, пн
пн123:00−9сз479594 0.5 1007189
02:00−12сз379590 0.1 1009193
05:00−13ссз479595 0.6 1012251
08:00−16сз379699 0.3 1015196
11:00−16ссз359497 0.3 1017250
14:00−12ссз3590100 0.0 1018502
17:00−12ссз4792100 0.1 1020409
20:00−18сз339785 0.0 102174
2 марта, вт
вт223:00−20ссз239782 0.0 102427
02:00−22зсз129818 0.0 102320
05:00−23юз1210021 0.0 102220
08:00−23ю349981 0.0 102258
11:00−19ю599486 0.0 1019281
14:00−14ююз6108898 0.0 1016405
17:00−12ююз7128699 0.0 1014525
20:00−13ююз71393100 0.1 1012563